Location: Killam
(52.7910°N, 111.8608°W)
Time: 05:47:05
(UTC+00:00)

Vanguard 3 - Pass Details

Date: 23 February 2026
Orbit: 507 x 3205 km, 33.4° (Epoch: 14 March)

Event Time Altitude Azimuth Distance (km) Brightness Sun altitude
Rises 19:23:10 0° 192° (SSW) 6,909 13.0 27.5°
Reaches altitude 10° 19:33:03 10° 166° (SSE) 5,339 12.9 27.6°
Maximum altitude 19:36:58 11° 151° (SSE) 4,918 12.3 27.6°
Drops below altitude 10° 19:40:30 10° 135° (SE) 4,727 11.8 27.6°
Sets 19:47:21 0° 106° (ESE) 5,027 11.4 27.6°
